Regional Weather Roundup
Issued by NWS

Home | Current Version | Previous Version | Graphics & Text | Print | Product List | Glossary On
Versions: 1 2 3 4 5 6 7 8 9 10 11 12 13 14 15 16 17 18 19 20 21 22 23 24 25 26 27 28 29 30 31 32 33 34 35 36 37 38 39 40 41 42 43 44 45 46 47 48 49 50
306
ASUS43 KLMK 210402
RWRKY
KENTUCKY REGIONAL WEATHER ROUNDUP
NATIONAL WEATHER SERVICE LOUISVILLE KY
1100 PM EST MON FEB 20 2017

NOTE "FAIR" INDICATES FEW OR NO CLOUDS BELOW 12,000 FEET
WITH NO SIGNIFICANT WEATHER AND/OR OBSTRUCTIONS TO VISIBILITY.

KYZ001>023-026-027-061>063-070>075-210500-
WESTERN AND SOUTH CENTRAL KENTUCKY

CITY           SKY/WX    TMP DP  RH WIND       PRES   REMARKS
PADUCAH        CLOUDY    61  48  62 SE5       29.96S
HENDERSON      CLOUDY    54  45  71 CALM      29.98F
OWENSBORO      CLOUDY    58  48  69 SE5       30.00F
HOPKINSVILLE   CLOUDY    60  48  63 SE5       30.00F
BOWLING GREEN  CLOUDY    54  45  71 CALM      30.03F
GLASGOW        NOT AVBL
$$

KYZ024-025-028>034-038-045-046-053-210500-
NORTH CENTRAL KENTUCKY

CITY           SKY/WX    TMP DP  RH WIND       PRES   REMARKS
LOUISVILLE/SDF CLOUDY    59  42  53 SE5       30.03F
LOUISVILLE/LOU CLOUDY    60  43  53 CALM      30.04F
FORT KNOX      MOCLDY    57  43  59 E6        30.02F
$$

KYZ035>037-039>044-047>052-055>060-089>105-210500-
NORTHEAST KENTUCKY

CITY           SKY/WX    TMP DP  RH WIND       PRES   REMARKS
LEXINGTON      PTCLDY    58  41  53 SE9       30.07F
COVINGTON      CLOUDY    55  40  56 SE9       30.07F
FRANKFORT      CLOUDY    53  43  68 SE3       30.06F
$$

KYZ054-064>069-076>088-106>120-210500-
SOUTHEAST KENTUCKY

CITY           SKY/WX    TMP DP  RH WIND       PRES   REMARKS
JACKSON        PTCLDY    59  38  45 VRB3      30.11F
LONDON         PTCLDY    51  40  65 CALM      30.10F
SOMERSET       PTCLDY    54  41  62 E5        30.10F
MIDDLESBORO    CLOUDY    46  43  88 CALM      30.14S
MONTICELLO     MOCLDY    59  44  57 E8        30.10F
$$





USA.gov is the U.S. government's official web portal to all federal, state and local government web resources and services.